Location: Daouli
(14.8671°N, 3.2030°W)
Time: 01:20:10
(UTC+00:00)

Geosat - Pass Details

Date: 29 October 2020
Orbit: 763 x 766 km, 108.0° (Epoch: 02 December)

Event Time Altitude Azimuth Distance (km) Brightness Sun altitude
Rises 17:56:25 0° 32° (NNE) 3,223 6.8 -3.5°
Reaches altitude 10° 17:58:48 10° 39° (NE) 2,297 6.0 -4.0°
Maximum altitude 18:03:32 43° 111° (ESE) 1,057 4.4 -5.2°
Drops below altitude 10° 18:08:17 10° 182° (S) 2,295 6.7 -6.3°
Sets 18:10:39 0° 188° (S) 3,220 7.5 -6.8°
